Chanute, KS

9:14 PM CST on December 12, 2019 (GMT -0600)
Chanute Martin Johnson

Weather History for KCNU - August, 2019

Change the Weather History Date:

Wednesday, August 14, 2019

  Actual Average Record
Temperature  
Mean Temperature 81 °F 80 °F  
Max Temperature 92 °F 90 °F 110 °F (1936)
Min Temperature 70 °F 69 °F 54 °F (1920)
Degree Days  
Heating Degree Days 0 0  
Month to date heating degree days 0 0  
Since 1 June heating degree days 0 6  
Since 1 July heating degree days 0 0  
Cooling Degree Days 16 14  
Month to date cooling degree days 212 209  
Year to date cooling degree days 1189 1083  
Since 1 June cooling degree days 1019 950  
Growing Degree Days 31 (Base 50)    
Moisture  
Dew Point 67 °F    
Average Humidity 64    
Maximum Humidity 87    
Minimum Humidity 41    
Precipitation  
Precipitation 0.00 in 0.13 in 2.28 in (1964)
Month to date precipitation 4.44 1.66  
Year to date precipitation 41.14 28.46  
Sea Level Pressure  
Sea Level Pressure 30.04 in    
Wind  
Wind Speed 4 mph (North)    
Max Wind Speed 8 mph    
Max Gust Speed 12 mph    
Visibility 10 miles    
Events      
T = Trace of Precipitation, MM = Missing Value Source: NWS Daily Summary

Daily Weather History Graph

Daily Weather History Graph

Search for Another Location

Airport or City:

Astronomy

Aug. 14, 2019 Rise Set
Actual Time 6:36 AM CDT 8:16 PM CDT
Civil Twilight 6:08 AM CDT 8:43 PM CDT
Nautical Twilight 5:34 AM CDT 9:17 PM CDT
Astronomical Twilight 4:58 AM CDT 9:53 PM CDT
Moon 8:09 PM CDT (8/14) 5:36 AM CDT (8/14)
Length of Visible Light 14h 35m
Length of Day
13h 39m
Waxing Gibbous, 99% of the Moon is Illuminated
Aug 14
Waxing Gibbous
Aug 15
Full
Aug 23
Last Quarter
Aug 30
New
Sep 5
First Quarter

Hourly Weather History & Observations

Time (CDT) Temp. Heat Index Dew Point Humidity Pressure Visibility Wind Dir Wind Speed Gust Speed Precip Events Conditions
12:52 AM 73.0 °F - 69.1 °F 87% 30.04 in 10.0 mi Calm Calm - N/A   Clear
1:52 AM 73.0 °F - 68.0 °F 84% 30.04 in 10.0 mi NNW 4.6 mph - N/A   Clear
2:52 AM 73.0 °F - 68.0 °F 84% 30.03 in 10.0 mi Calm Calm - N/A   Clear
3:52 AM 72.0 °F - 66.9 °F 84% 30.03 in 10.0 mi Calm Calm - N/A   Clear
4:52 AM 71.1 °F - 66.9 °F 87% 30.01 in 10.0 mi NNW 5.8 mph - N/A   Clear
5:52 AM 71.1 °F - 66.9 °F 87% 30.03 in 10.0 mi North 4.6 mph - N/A   Clear
6:52 AM 72.0 °F - 66.9 °F 84% 30.03 in 10.0 mi NE 4.6 mph - N/A   Clear
7:52 AM 73.0 °F - 66.9 °F 81% 30.05 in 10.0 mi NNW 5.8 mph - N/A   Clear
8:52 AM 78.1 °F - 69.1 °F 74% 30.07 in 10.0 mi NNW 4.6 mph - N/A   Clear
9:52 AM 82.9 °F 85.8 °F 68.0 °F 60% 30.08 in 10.0 mi North 5.8 mph - N/A   Clear
10:52 AM 84.9 °F 87.6 °F 66.9 °F 55% 30.09 in 10.0 mi WNW 4.6 mph - N/A   Clear
11:52 AM 87.1 °F 90.6 °F 68.0 °F 53% 30.08 in 10.0 mi Variable 4.6 mph - N/A   Clear
12:52 PM 87.1 °F 90.6 °F 68.0 °F 53% 30.06 in 10.0 mi Variable 4.6 mph - N/A   Clear
1:52 PM 90.0 °F 93.6 °F 68.0 °F 48% 30.05 in 10.0 mi West 5.8 mph - N/A   Clear
2:52 PM 88.0 °F 90.3 °F 66.0 °F 48% 30.04 in 10.0 mi Calm Calm - N/A   Clear
3:52 PM 91.0 °F 93.0 °F 64.9 °F 42% 30.02 in 10.0 mi Variable 5.8 mph - N/A   Clear
4:52 PM 89.1 °F 92.1 °F 66.9 °F 48% 30.01 in 10.0 mi Calm Calm - N/A   Scattered Clouds
5:52 PM 90.0 °F 91.7 °F 64.9 °F 43% 30.00 in 10.0 mi ENE 4.6 mph - N/A   Clear
6:52 PM 89.1 °F 91.3 °F 66.0 °F 46% 30.00 in 10.0 mi NNE 5.8 mph - N/A   Clear
7:52 PM 84.0 °F 88.4 °F 70.0 °F 63% 30.01 in 10.0 mi NNE 4.6 mph - N/A   Clear
8:52 PM 79.0 °F - 70.0 °F 74% 30.03 in 10.0 mi North 5.8 mph - N/A   Clear
9:52 PM 77.0 °F - 68.0 °F 74% 30.06 in 10.0 mi NNE 4.6 mph - N/A   Clear
10:52 PM 75.0 °F - 68.0 °F 79% 30.07 in 10.0 mi NNE 5.8 mph - N/A   Clear
11:52 PM 75.0 °F - 66.0 °F 73% 30.06 in 10.0 mi ENE 3.5 mph - N/A   Clear